カタログに戻る

STARLINK-4214

運用中通信VLEO
NORAD 52877·PAYLOAD·🇺🇸 United States

打ち上げ Jun 17, 2022 から Cape Canaveral Space Force Station

Loading…

次のパス (今後24時間)

TLE

最新Source: CelesTrak SupGP

元期: Sep 14, 2026, 21:16 UTC

1 52877C 22062AZ  26257.88659722  .00038072  00000+0  11248-2 0  2574
2 52877  53.1573 232.1588 0001224  98.8353 186.0338 15.34371845    10

AllMySatでSTARLINK-4214をリアルタイム追跡

Download on the App Store